Location: Braunsdorf
(50.7357°N, 11.9136°E)
Time: 05:48:10
(UTC+00:00)

Cosmos 2251 Rocket - Pass Details

Date: 17 February 2020
Orbit: 764 x 793 km, 74.0° (Epoch: 30 March)

Event Time Altitude Azimuth Distance (km) Brightness Sun altitude
Exits shadow 04:01:07 38° 205° (SSW) 1,162 4.1 -22.9°
Maximum altitude 04:03:12 88° 293° (WNW) 781 3.4 -22.5°
Drops below altitude 10° 04:08:32 10° 24° (NNE) 2,339 6.4 -21.7°
Sets 04:10:56 0° 25° (NNE) 3,276 7.2 -21.3°
